Time,TemperatureF,DewpointF,PressureIn,WindDirection,WindDirectionDegrees,WindSpeedMPH,WindSpeedGustMPH,Humidity,HourlyPrecipIn,Conditions,Clouds,dailyrainin,SoftwareType,DateUTC
2013-03-26 00:00:00,21.0,-99.9,-100.00,SE,132,61.0,-999.0,-999,-99.99,,,0.00,,2013-03-26 06:00:00,
2013-03-26 01:00:00,21.0,-99.9,-100.00,North,-999,-999.0,-999.0,-999,-99.99,,,0.00,,2013-03-26 07:00:00,
2013-03-26 01:53:00,21.0,-99.9,-100.00,North,-999,-999.0,-999.0,-999,-99.99,,,0.00,,2013-03-26 07:53:00,
2013-03-26 02:00:00,19.0,-99.9,-100.00,South,175,62.0,-999.0,-999,-99.99,,,0.00,,2013-03-26 08:00:00,
2013-03-26 03:00:00,21.0,-99.9,-100.00,South,177,61.0,-999.0,-999,-99.99,,,0.00,,2013-03-26 09:00:00,
2013-03-26 04:00:00,22.0,-99.9,-100.00,South,174,62.0,-999.0,-999,-99.99,,,0.00,,2013-03-26 10:00:00,
2013-03-26 05:00:00,24.0,-99.9,-100.00,South,175,60.0,-999.0,-999,-99.99,,,0.00,,2013-03-26 11:00:00,
2013-03-26 06:00:00,24.0,-99.9,-100.00,South,180,61.0,-999.0,-999,-99.99,,,0.00,,2013-03-26 12:00:00,
2013-03-26 07:00:00,25.0,-99.9,-100.00,South,187,64.0,-999.0,-999,-99.99,,,0.00,,2013-03-26 13:00:00,
2013-03-26 08:00:00,27.0,-99.9,-100.00,South,188,64.0,-999.0,-999,-99.99,,,0.00,,2013-03-26 14:00:00,
2013-03-26 09:00:00,30.0,-99.9,-100.00,South,186,64.0,-999.0,-999,-99.99,,,0.00,,2013-03-26 15:00:00,
2013-03-26 10:00:00,35.0,-99.9,-100.00,South,172,61.0,-999.0,-999,-99.99,,,0.00,,2013-03-26 16:00:00,
2013-03-26 11:00:00,38.0,-99.9,-100.00,SSE,154,55.0,-999.0,-999,-99.99,,,0.01,,2013-03-26 17:00:00,
2013-03-26 12:00:00,40.0,-99.9,-100.00,SSE,150,52.0,-999.0,-999,-99.99,,,0.01,,2013-03-26 18:00:00,
2013-03-26 13:00:00,40.0,-99.9,-100.00,SSE,164,61.0,-999.0,-999,-99.99,,,0.00,,2013-03-26 19:00:00,
2013-03-26 13:54:00,40.0,-99.9,-100.00,North,-999,-999.0,-999.0,-999,-99.99,,,0.00,,2013-03-26 19:54:00,
2013-03-26 14:00:00,38.0,-99.9,-100.00,SSW,201,73.0,-999.0,-999,-99.99,,,0.00,,2013-03-26 20:00:00,
2013-03-26 15:00:00,39.0,-99.9,-100.00,SSW,206,73.0,-999.0,-999,-99.99,,,0.00,,2013-03-26 21:00:00,
2013-03-26 15:43:00,39.0,-99.9,-100.00,SSW,206,73.0,-999.0,-999,-99.99,,,0.00,,2013-03-26 21:43:00,
2013-03-26 15:53:00,39.0,-99.9,-100.00,SSW,206,73.0,-999.0,-999,-99.99,,,0.00,,2013-03-26 21:53:00,
2013-03-26 16:00:00,39.0,-99.9,-100.00,SSW,194,69.0,-999.0,-999,-99.99,,,0.00,,2013-03-26 22:00:00,
2013-03-26 16:53:00,39.0,-99.9,-100.00,SSW,194,69.0,-999.0,-999,-99.99,,,0.00,,2013-03-26 22:53:00,
2013-03-26 17:00:00,39.0,-99.9,-100.00,SSW,194,70.0,-999.0,-999,-99.99,,,0.00,,2013-03-26 23:00:00,
2013-03-26 17:43:00,39.0,-99.9,-100.00,SSW,194,70.0,-999.0,-999,-99.99,,,0.00,,2013-03-26 23:43:00,
2013-03-26 17:53:00,39.0,-99.9,-100.00,SSW,194,70.0,-999.0,-999,-99.99,,,0.00,,2013-03-26 23:53:00,
2013-03-26 18:00:00,37.0,-99.9,-100.00,SSW,197,71.0,-999.0,-999,-99.99,,,-99.99,,2013-03-27 00:00:00,
2013-03-26 18:52:00,37.0,-99.9,-100.00,SSW,197,71.0,-999.0,-999,-99.99,,,-99.99,,2013-03-27 00:52:00,
2013-03-26 19:00:00,36.0,-99.9,-100.00,SW,222,78.0,-999.0,-999,-99.99,,,0.00,,2013-03-27 01:00:00,
2013-03-26 20:00:00,33.0,-99.9,-100.00,WSW,258,96.0,-999.0,-999,-99.99,,,0.00,,2013-03-27 02:00:00,
2013-03-26 21:00:00,32.0,-99.9,-100.00,WNW,289,99.0,-999.0,-999,-99.99,,,-99.99,,2013-03-27 03:00:00,
2013-03-26 22:00:00,31.0,-99.9,-100.00,WSW,238,90.0,-999.0,-999,-99.99,,,0.01,,2013-03-27 04:00:00,
2013-03-26 23:00:00,32.0,-99.9,-100.00,SSW,205,78.0,-999.0,-999,-99.99,,,0.01,,2013-03-27 05:00:00,
2013-03-26 23:42:00,31.0,-99.9,-100.00,SSW,205,78.0,-999.0,-999,-99.99,,,0.01,,2013-03-27 05:42:00,
2013-03-26 23:53:00,32.0,-99.9,-100.00,SSW,205,78.0,-999.0,-999,-99.99,,,0.01,,2013-03-27 05:53:00,